| time (UTC) | temp F | wind direction | speed MPH | gust MPH | rain 1hr in | rain 24hr in | rain mn in | humidity % | barometer mb |
| 20260831001337 | 73 | 230 | 1.0 | 3.0 | 0.00 | 0.00 | 0.00 | 56 | 1018.6 |
| 20260831000340 | 73 | 230 | 0.0 | 0.0 | 0.00 | 0.00 | 0.00 | 56 | 1018.7 |
| 20260830235359 | 73 | 229 | 0.0 | 0.0 | 0.00 | 0.00 | 0.00 | 55 | 1018.8 |
| 20260830234356 | 74 | 229 | 0.0 | 1.0 | 0.00 | 0.00 | 0.00 | 55 | 1018.7 |
| 20260830233356 | 74 | 229 | 0.0 | 1.0 | 0.00 | 0.00 | 0.00 | 55 | 1018.8 |
| 20260830232348 | 74 | 229 | 0.0 | 1.0 | 0.00 | 0.00 | 0.00 | 54 | 1018.8 |
| 20260830231351 | 74 | 229 | 1.0 | 2.0 | 0.00 | 0.00 | 0.00 | 54 | 1018.8 |
| 20260830230349 | 74 | 229 | 2.0 | 3.0 | 0.00 | 0.00 | 0.00 | 53 | 1018.9 |
| 20260830225344 | 75 | 229 | 1.0 | 2.0 | 0.00 | 0.00 | 0.00 | 52 | 1018.8 |
| 20260830224348 | 75 | 229 | 1.0 | 2.0 | 0.00 | 0.00 | 0.00 | 51 | 1018.8 |
| 20260830223348 | 75 | 229 | 0.0 | 3.0 | 0.00 | 0.00 | 0.00 | 50 | 1018.8 |
| 20260830222345 | 75 | 229 | 1.0 | 3.0 | 0.00 | 0.00 | 0.00 | 50 | 1018.8 |
| 20260830221343 | 75 | 229 | 1.0 | 3.0 | 0.00 | 0.00 | 0.00 | 50 | 1018.7 |
| 20260830220344 | 76 | 229 | 1.0 | 2.0 | 0.00 | 0.00 | 0.00 | 49 | 1018.7 |
| 20260830215339 | 76 | 229 | 0.0 | 2.0 | 0.00 | 0.00 | 0.00 | 49 | 1018.7 |
| 20260830214338 | 76 | 229 | 1.0 | 3.0 | 0.00 | 0.00 | 0.00 | 49 | 1018.6 |
| 20260830213337 | 77 | 231 | 0.0 | 1.0 | 0.00 | 0.00 | 0.00 | 50 | 1018.6 |
| 20260830212354 | 77 | 231 | 0.0 | 2.0 | 0.00 | 0.00 | 0.00 | 49 | 1018.5 |
| 20260830211338 | 77 | 231 | 0.0 | 2.0 | 0.00 | 0.00 | 0.00 | 50 | 1018.4 |
| 20260830210339 | 78 | 231 | 2.0 | 2.0 | 0.00 | 0.00 | 0.00 | 51 | 1018.6 |
| 20260830205358 | 78 | 231 | 2.0 | 3.0 | 0.00 | 0.00 | 0.00 | 50 | 1018.5 |
| 20260830204356 | 78 | 231 | 1.0 | 1.0 | 0.00 | 0.00 | 0.00 | 48 | 1018.4 |
| 20260830203340 | 79 | 231 | 0.0 | 4.0 | 0.00 | 0.00 | 0.00 | 50 | 1018.4 |
| 20260830202336 | 79 | 231 | 2.0 | 5.0 | 0.00 | 0.00 | 0.00 | 53 | 1018.3 |
| 20260830201336 | 80 | 209 | 2.0 | 3.0 | 0.00 | 0.00 | 0.00 | 51 | 1018.4 |
| 20260830200342 | 80 | 209 | 2.0 | 4.0 | 0.00 | 0.00 | 0.00 | 50 | 1018.3 |
| 20260830195342 | 81 | 208 | 3.0 | 4.0 | 0.00 | 0.00 | 0.00 | 48 | 1018.1 |
| 20260830194345 | 81 | 206 | 3.0 | 4.0 | 0.00 | 0.00 | 0.00 | 45 | 1018.2 |
| 20260830193348 | 82 | 205 | 2.0 | 4.0 | 0.00 | 0.00 | 0.00 | 41 | 1018.1 |
| 20260830192339 | 82 | 205 | 1.0 | 3.0 | 0.00 | 0.00 | 0.00 | 39 | 1017.9 |
| 20260830191339 | 82 | 205 | 0.0 | 3.0 | 0.00 | 0.00 | 0.00 | 38 | 1017.8 |
| 20260830190339 | 83 | 204 | 2.0 | 3.0 | 0.00 | 0.00 | 0.00 | 38 | 1017.6 |
| 20260830185340 | 83 | 204 | 2.0 | 4.0 | 0.00 | 0.00 | 0.00 | 37 | 1017.5 |
| 20260830184339 | 83 | 223 | 2.0 | 7.0 | 0.00 | 0.00 | 0.00 | 37 | 1017.4 |
| 20260830183341 | 84 | 221 | 2.0 | 5.0 | 0.00 | 0.00 | 0.00 | 36 | 1017.4 |
| 20260830182354 | 84 | 218 | 3.0 | 6.0 | 0.00 | 0.00 | 0.00 | 35 | 1017.3 |
| 20260830181353 | 85 | 242 | 2.0 | 10.0 | 0.00 | 0.00 | 0.00 | 35 | 1017.4 |
| 20260830180353 | 85 | 213 | 5.0 | 9.0 | 0.00 | 0.00 | 0.00 | 33 | 1017.3 |
| 20260830175343 | 86 | 212 | 2.0 | 8.0 | 0.00 | 0.00 | 0.00 | 33 | 1017.3 |
| 20260830174356 | 86 | 248 | 6.0 | 10.0 | 0.00 | 0.00 | 0.00 | 34 | 1017.2 |
| 20260830173354 | 87 | 209 | 3.0 | 9.0 | 0.00 | 0.00 | 0.00 | 34 | 1017.3 |
| 20260830172348 | 88 | 255 | 2.0 | 6.0 | 0.00 | 0.00 | 0.00 | 33 | 1017.2 |
| 20260830171347 | 87 | 159 | 1.0 | 10.0 | 0.00 | 0.00 | 0.00 | 32 | 1017.3 |
| 20260830170344 | 88 | 52 | 5.0 | 10.0 | 0.00 | 0.00 | 0.00 | 32 | 1017.2 |
| 20260830165400 | 88 | 257 | 2.0 | 8.0 | 0.00 | 0.00 | 0.00 | 33 | 1017.2 |
| 20260830164357 | 88 | 203 | 3.0 | 10.0 | 0.00 | 0.00 | 0.00 | 32 | 1017.1 |
| 20260830163356 | 87 | 218 | 7.0 | 17.0 | 0.00 | 0.00 | 0.00 | 33 | 1017.1 |
| 20260830162351 | 87 | 221 | 10.0 | 16.0 | 0.00 | 0.00 | 0.00 | 34 | 1017.1 |
| 20260830161346 | 88 | 195 | 7.0 | 13.0 | 0.00 | 0.00 | 0.00 | 35 | 1017.1 |
| 20260830160344 | 88 | 216 | 9.0 | 15.0 | 0.00 | 0.00 | 0.00 | 33 | 1017.1 |
| 20260830155340 | 88 | 228 | 5.0 | 17.0 | 0.00 | 0.00 | 0.00 | 36 | 1017.0 |
| 20260830154400 | 89 | 223 | 5.0 | 10.0 | 0.00 | 0.00 | 0.00 | 34 | 1017.2 |
| 20260830153340 | 88 | 199 | 4.0 | 12.0 | 0.00 | 0.00 | 0.00 | 35 | 1017.1 |
| 20260830152354 | 88 | 24 | 3.0 | 11.0 | 0.00 | 0.00 | 0.00 | 35 | 1017.3 |
| 20260830151352 | 88 | 160 | 3.0 | 12.0 | 0.00 | 0.00 | 0.00 | 35 | 1017.3 |
| 20260830150348 | 88 | 220 | 8.0 | 14.0 | 0.00 | 0.00 | 0.00 | 34 | 1017.3 |
| 20260830145341 | 88 | 210 | 8.0 | 14.0 | 0.00 | 0.00 | 0.00 | 35 | 1017.4 |
| 20260830144345 | 88 | 209 | 9.0 | 19.0 | 0.00 | 0.00 | 0.00 | 35 | 1017.4 |
| 20260830143346 | 89 | 168 | 3.0 | 9.0 | 0.00 | 0.00 | 0.00 | 32 | 1017.4 |
| 20260830142340 | 89 | 53 | 5.0 | 13.0 | 0.00 | 0.00 | 0.00 | 35 | 1017.5 |
| 20260830141341 | 88 | 200 | 5.0 | 14.0 | 0.00 | 0.00 | 0.00 | 38 | 1017.6 |
| 20260830140339 | 89 | 203 | 8.0 | 13.0 | 0.00 | 0.00 | 0.00 | 37 | 1017.7 |
| 20260830135355 | 88 | 214 | 4.0 | 14.0 | 0.00 | 0.00 | 0.00 | 32 | 1017.8 |
| 20260830134349 | 88 | 223 | 5.0 | 15.0 | 0.00 | 0.00 | 0.00 | 35 | 1017.9 |
| 20260830133346 | 88 | 243 | 10.0 | 17.0 | 0.00 | 0.00 | 0.00 | 32 | 1017.9 |
| 20260830132339 | 88 | 219 | 8.0 | 15.0 | 0.00 | 0.00 | 0.00 | 34 | 1018.0 |
| 20260830131354 | 89 | 206 | 4.0 | 15.0 | 0.00 | 0.00 | 0.00 | 34 | 1017.9 |
| 20260830130347 | 88 | 99 | 4.0 | 11.0 | 0.00 | 0.00 | 0.00 | 37 | 1018.3 |
| 20260830125357 | 88 | 130 | 6.0 | 14.0 | 0.00 | 0.00 | 0.00 | 37 | 1018.3 |
| 20260830124355 | 87 | 89 | 5.0 | 14.0 | 0.00 | 0.00 | 0.00 | 38 | 1018.4 |
| 20260830123348 | 87 | 116 | 9.0 | 15.0 | 0.00 | 0.00 | 0.00 | 39 | 1018.4 |
| 20260830122344 | 87 | 16 | 2.0 | 14.0 | 0.00 | 0.00 | 0.00 | 38 | 1018.5 |
| 20260830121343 | 87 | 149 | 8.0 | 15.0 | 0.00 | 0.00 | 0.00 | 38 | 1018.6 |
| 20260830120346 | 87 | 135 | 10.0 | 18.0 | 0.00 | 0.00 | 0.00 | 36 | 1018.6 |
| 20260830115340 | 87 | 132 | 6.0 | 14.0 | 0.00 | 0.00 | 0.00 | 36 | 1018.7 |
| 20260830114358 | 87 | 131 | 6.0 | 13.0 | 0.00 | 0.00 | 0.00 | 35 | 1018.7 |
| 20260830113349 | 87 | 110 | 8.0 | 15.0 | 0.00 | 0.00 | 0.00 | 34 | 1018.8 |
| 20260830112340 | 87 | 127 | 7.0 | 14.0 | 0.00 | 0.00 | 0.00 | 33 | 1018.8 |
| 20260830111358 | 88 | 175 | 8.0 | 11.0 | 0.00 | 0.00 | 0.00 | 33 | 1018.9 |
| 20260830110354 | 88 | 104 | 8.0 | 13.0 | 0.00 | 0.00 | 0.00 | 32 | 1019.1 |
| 20260830105402 | 88 | 244 | 4.0 | 13.0 | 0.00 | 0.00 | 0.00 | 32 | 1019.2 |
| 20260830104356 | 87 | 119 | 5.0 | 11.0 | 0.00 | 0.00 | 0.00 | 32 | 1019.2 |
| 20260830103347 | 87 | 130 | 6.0 | 10.0 | 0.00 | 0.00 | 0.00 | 32 | 1019.2 |
| 20260830102340 | 87 | 136 | 7.0 | 9.0 | 0.00 | 0.00 | 0.00 | 32 | 1019.1 |
| 20260830101344 | 86 | 278 | 4.0 | 8.0 | 0.00 | 0.00 | 0.00 | 37 | 1019.2 |
| 20260830100345 | 86 | 228 | 4.0 | 6.0 | 0.00 | 0.00 | 0.00 | 38 | 1019.3 |
| 20260830095343 | 85 | 235 | 3.0 | 6.0 | 0.00 | 0.00 | 0.00 | 41 | 1019.5 |
| 20260830094356 | 84 | 255 | 5.0 | 7.0 | 0.00 | 0.00 | 0.00 | 41 | 1019.5 |
| 20260830093354 | 83 | 265 | 3.0 | 6.0 | 0.00 | 0.00 | 0.00 | 45 | 1019.6 |
| 20260830092343 | 82 | 34 | 1.0 | 3.0 | 0.00 | 0.00 | 0.00 | 47 | 1019.5 |
| 20260830091346 | 81 | 34 | 0.0 | 3.0 | 0.00 | 0.00 | 0.00 | 49 | 1019.6 |
| 20260830090344 | 80 | 36 | 1.0 | 2.0 | 0.00 | 0.00 | 0.00 | 52 | 1019.6 |
| 20260830085346 | 79 | 36 | 1.0 | 4.0 | 0.00 | 0.00 | 0.00 | 54 | 1019.6 |
| 20260830084346 | 78 | 37 | 0.0 | 3.0 | 0.00 | 0.00 | 0.00 | 57 | 1019.6 |
| 20260830083345 | 77 | 37 | 2.0 | 3.0 | 0.00 | 0.00 | 0.00 | 59 | 1019.7 |
| 20260830082340 | 76 | 38 | 2.0 | 4.0 | 0.00 | 0.00 | 0.00 | 62 | 1019.6 |
| 20260830081339 | 76 | 39 | 2.0 | 3.0 | 0.00 | 0.00 | 0.00 | 62 | 1019.7 |
| 20260830080338 | 75 | 40 | 2.0 | 4.0 | 0.00 | 0.00 | 0.00 | 63 | 1019.6 |
| 20260830075400 | 74 | 41 | 1.0 | 3.0 | 0.00 | 0.00 | 0.00 | 66 | 1019.5 |
| 20260830074340 | 73 | 41 | 0.0 | 3.0 | 0.00 | 0.00 | 0.00 | 67 | 1019.5 |
| 20260830073358 | 72 | 41 | 1.0 | 4.0 | 0.00 | 0.00 | 0.00 | 68 | 1019.4 |
| 20260830072351 | 73 | 43 | 0.0 | 0.0 | 0.00 | 0.00 | 0.00 | 70 | 1019.5 |
| 20260830071351 | 72 | 44 | 0.0 | 2.0 | 0.00 | 0.00 | 0.00 | 72 | 1019.5 |
| 20260830070337 | 71 | 43 | 1.0 | 2.0 | 0.00 | 0.00 | 0.00 | 72 | 1019.4 |
| 20260830065354 | 71 | 43 | 1.0 | 2.0 | 0.00 | 0.00 | 0.00 | 73 | 1019.5 |
| 20260830064336 | 70 | 44 | 0.0 | 1.0 | 0.00 | 0.00 | 0.00 | 75 | 1019.5 |
| 20260830063340 | 69 | 43 | 0.0 | 3.0 | 0.00 | 0.00 | 0.00 | 76 | 1019.5 |
| 20260830062340 | 68 | 43 | 1.0 | 3.0 | 0.00 | 0.00 | 0.00 | 76 | 1019.3 |
| 20260830061340 | 68 | 44 | 0.0 | 3.0 | 0.00 | 0.00 | 0.00 | 78 | 1019.3 |
| 20260830060336 | 68 | 43 | 2.0 | 3.0 | 0.00 | 0.00 | 0.00 | 78 | 1019.4 |
| 20260830055356 | 67 | 43 | 0.0 | 2.0 | 0.00 | 0.00 | 0.00 | 77 | 1019.2 |
| 20260830054358 | 67 | 43 | 1.0 | 4.0 | 0.00 | 0.00 | 0.00 | 78 | 1019.3 |
| 20260830053338 | 67 | 44 | 1.0 | 3.0 | 0.00 | 0.00 | 0.00 | 77 | 1019.0 |
| 20260830052356 | 67 | 44 | 1.0 | 3.0 | 0.00 | 0.00 | 0.00 | 77 | 1019.1 |
| 20260830051341 | 68 | 44 | 0.0 | 2.0 | 0.00 | 0.00 | 0.00 | 78 | 1018.9 |
| 20260830050344 | 68 | 44 | 0.0 | 1.0 | 0.00 | 0.00 | 0.00 | 78 | 1019.0 |
| 20260830045346 | 68 | 44 | 0.0 | 2.0 | 0.00 | 0.00 | 0.00 | 78 | 1018.8 |
| 20260830044351 | 68 | 44 | 1.0 | 2.0 | 0.00 | 0.00 | 0.00 | 78 | 1018.9 |
| 20260830043354 | 68 | 44 | 0.0 | 0.0 | 0.00 | 0.00 | 0.00 | 78 | 1019.0 |
| 20260830042351 | 68 | 44 | 0.0 | 0.0 | 0.00 | 0.00 | 0.00 | 77 | 1019.0 |
| 20260830040338 | 69 | 44 | 0.0 | 0.0 | 0.00 | 0.00 | 0.00 | 76 | 1019.0 |
| 20260830035359 | 69 | 44 | 0.0 | 0.0 | 0.00 | 0.00 | 0.00 | 77 | 1018.9 |
| 20260830034338 | 69 | 44 | 0.0 | 0.0 | 0.00 | 0.00 | 0.00 | 76 | 1018.9 |
| 20260830033337 | 69 | 44 | 0.0 | 1.0 | 0.00 | 0.00 | 0.00 | 75 | 1018.9 |
| 20260830032354 | 69 | 44 | 0.0 | 1.0 | 0.00 | 0.00 | 0.00 | 75 | 1018.9 |
| 20260830031337 | 69 | 44 | 0.0 | 2.0 | 0.00 | 0.00 | 0.00 | 75 | 1019.0 |
| 20260830030357 | 70 | 44 | 0.0 | 1.0 | 0.00 | 0.00 | 0.00 | 75 | 1018.9 |
| 20260830025357 | 70 | 44 | 0.0 | 1.0 | 0.00 | 0.00 | 0.00 | 75 | 1019.0 |
| 20260830024336 | 70 | 44 | 0.0 | 1.0 | 0.00 | 0.00 | 0.00 | 75 | 1019.1 |
| 20260830023338 | 70 | 44 | 0.0 | 1.0 | 0.00 | 0.00 | 0.00 | 75 | 1019.0 |
| 20260830022357 | 70 | 44 | 0.0 | 2.0 | 0.00 | 0.00 | 0.00 | 75 | 1019.0 |
| 20260830021357 | 70 | 44 | 1.0 | 2.0 | 0.00 | 0.00 | 0.00 | 75 | 1019.0 |
| 20260830020336 | 70 | 44 | 1.0 | 2.0 | 0.00 | 0.00 | 0.00 | 75 | 1019.2 |
| 20260830015356 | 70 | 44 | 0.0 | 2.0 | 0.00 | 0.00 | 0.00 | 75 | 1019.2 |
| 20260830014337 | 70 | 44 | 0.0 | 2.0 | 0.00 | 0.00 | 0.00 | 75 | 1019.3 |
| 20260830013336 | 70 | 44 | 1.0 | 4.0 | 0.00 | 0.00 | 0.00 | 75 | 1019.3 |
| 20260830012357 | 71 | 44 | 3.0 | 6.0 | 0.00 | 0.00 | 0.00 | 74 | 1019.3 |
| 20260830011341 | 71 | 45 | 4.0 | 6.0 | 0.00 | 0.00 | 0.00 | 73 | 1019.3 |
| 20260830010343 | 71 | 46 | 2.0 | 4.0 | 0.00 | 0.00 | 0.00 | 73 | 1019.2 |
| 20260830005341 | 72 | 46 | 2.0 | 4.0 | 0.00 | 0.00 | 0.00 | 72 | 1019.4 |
| 20260830004347 | 72 | 46 | 2.0 | 3.0 | 0.00 | 0.00 | 0.00 | 71 | 1019.4 |
| 20260830003348 | 72 | 46 | 0.0 | 3.0 | 0.00 | 0.00 | 0.00 | 71 | 1019.5 |
| 20260830002339 | 73 | 46 | 1.0 | 3.0 | 0.00 | 0.00 | 0.00 | 70 | 1019.5 |